• In Germany
  • List of Countries
  • For 7 days
  • Water Temperature
  • Satellite Maps
  • Weather Map
  • Weather Widgets
  • user-avatar
    Login

    Hourly Weather Florencia

    Today, 16 January, Tuesday

    Time Temperature Precipitation Wind Pressure Humidity
    00:00 +25°C° 1.4 mm 1 mps 733 mmHg 94%
    01:00 +25°C° 0 mm 1 mps 733 mmHg 94%
    02:00 +24°C° 1.3 mm 1 mps 733 mmHg 94%
    03:00 +24°C° 1.3 mm 1 mps 733 mmHg 94%
    04:00 +24°C° 1.3 mm 1 mps 733 mmHg 94%
    05:00 +22°C° 0.4 mm 0 mps 733 mmHg 93%
    06:00 +22°C° 0.4 mm 0 mps 733 mmHg 92%
    07:00 +23°C° 0 mm 0 mps 734 mmHg 91%
    08:00 +24°C° 0.2 mm 0 mps 734 mmHg 85%
    09:00 +27°C° 0.2 mm 1 mps 734 mmHg 79%
    10:00 +29°C° 0.2 mm 1 mps 734 mmHg 73%
    11:00 +29°C° 0.3 mm 1 mps 734 mmHg 71%
    12:00 +30°C° 0.3 mm 1 mps 733 mmHg 68%
    13:00 +31°C° 0.3 mm 1 mps 733 mmHg 66%
    14:00 +30°C° 0.5 mm 1 mps 732 mmHg 69%
    15:00 +30°C° 0.5 mm 1 mps 732 mmHg 72%
    16:00 +29°C° 0.5 mm 1 mps 731 mmHg 75%
    17:00 +28°C° 0.7 mm 1 mps 732 mmHg 82%
    18:00 +27°C° 0.7 mm 1 mps 732 mmHg 88%
    19:00 +25°C° 0.7 mm 1 mps 732 mmHg 95%
    20:00 +25°C° 0.7 mm 1 mps 733 mmHg 95%
    21:00 +23°C° 0.7 mm 0 mps 734 mmHg 96%
    22:00 +23°C° 0.7 mm 0 mps 734 mmHg 96%
    23:00 +22°C° 0.6 mm 0 mps 734 mmHg 96%

    Tomorrow, 17 January, Wednesday

    Time Temperature Precipitation Wind Pressure Humidity
    00:00 +22°C° 0.6 mm 0 mps 734 mmHg 96%
    01:00 +22°C° 0.6 mm 0 mps 733 mmHg 96%
    02:00 +22°C° 0.9 mm 0 mps 733 mmHg 96%
    03:00 +22°C° 0.9 mm 0 mps 733 mmHg 96%
    04:00 +22°C° 0.9 mm 0 mps 733 mmHg 96%
    05:00 +22°C° 0.8 mm 0 mps 733 mmHg 96%
    06:00 +22°C° 0.8 mm 0 mps 733 mmHg 95%
    07:00 +22°C° 0.8 mm 0 mps 734 mmHg 95%
    08:00 +23°C° 0.6 mm 0 mps 734 mmHg 92%
    09:00 +24°C° 0.6 mm 0 mps 735 mmHg 89%
    10:00 +24°C° 0.6 mm 0 mps 735 mmHg 86%
    11:00 +26°C° 0.4 mm 0 mps 735 mmHg 81%
    12:00 +27°C° 0.4 mm 0 mps 734 mmHg 76%
    13:00 +28°C° 0.4 mm 0 mps 733 mmHg 71%
    14:00 +28°C° 0.2 mm 0 mps 733 mmHg 70%
    15:00 +28°C° 0.2 mm 0 mps 732 mmHg 69%
    16:00 +29°C° 0.2 mm 1 mps 731 mmHg 68%
    17:00 +26°C° 0.1 mm 0 mps 731 mmHg 75%
    18:00 +25°C° 0.1 mm 0 mps 732 mmHg 81%
    19:00 +23°C° 0.1 mm 0 mps 732 mmHg 88%
    20:00 +23°C° 0.2 mm 0 mps 733 mmHg 89%
    21:00 +22°C° 0.2 mm 0 mps 733 mmHg 90%
    22:00 +22°C° 0.2 mm 0 mps 734 mmHg 90%
    23:00 +22°C° 0.3 mm 0 mps 734 mmHg 90%

    Day after tomorrow, 18 January, Thursday

    Time Temperature Precipitation Wind Pressure Humidity
    00:00 +22°C° 0.3 mm 0 mps 733 mmHg 90%
    01:00 +23°C° 0.3 mm 1 mps 733 mmHg 89%
    02:00 +23°C° 0.3 mm 1 mps 733 mmHg 89%
    03:00 +23°C° 0.3 mm 1 mps 732 mmHg 88%
    04:00 +23°C° 0.3 mm 1 mps 732 mmHg 88%
    05:00 +21°C° 0.3 mm 0 mps 733 mmHg 87%
    06:00 +22°C° 0.3 mm 0 mps 733 mmHg 86%
    07:00 +22°C° 0.3 mm 0 mps 734 mmHg 85%
    08:00 +24°C° 0.3 mm 0 mps 734 mmHg 79%
    09:00 +26°C° 0.3 mm 0 mps 735 mmHg 72%
    10:00 +28°C° 0.3 mm 0 mps 735 mmHg 66%
    11:00 +28°C° 0.4 mm 0 mps 734 mmHg 64%
    12:00 +31°C° 0.4 mm 1 mps 733 mmHg 62%
    13:00 +32°C° 0.4 mm 1 mps 732 mmHg 60%
    14:00 +31°C° 0.4 mm 1 mps 732 mmHg 63%
    15:00 +31°C° 0.4 mm 1 mps 731 mmHg 65%
    16:00 +30°C° 0.4 mm 1 mps 730 mmHg 68%
    17:00 +29°C° 0.5 mm 1 mps 730 mmHg 76%
    18:00 +27°C° 0.5 mm 1 mps 731 mmHg 85%
    19:00 +23°C° 0.5 mm 0 mps 731 mmHg 94%
    20:00 +23°C° 0.9 mm 0 mps 732 mmHg 94%
    21:00 +23°C° 0.9 mm 0 mps 733 mmHg 95%
    22:00 +23°C° 0.9 mm 0 mps 734 mmHg 95%
    23:00 +23°C° 1.1 mm 0 mps 734 mmHg 95%

    19 January, Friday

    Time Temperature Precipitation Wind Pressure Humidity
    00:00 +22°C° 1.1 mm 0 mps 733 mmHg 95%
    01:00 +22°C° 1.1 mm 0 mps 733 mmHg 94%
    02:00 +22°C° 1.3 mm 0 mps 733 mmHg 94%
    03:00 +22°C° 1.3 mm 0 mps 732 mmHg 95%
    04:00 +22°C° 1.3 mm 0 mps 732 mmHg 95%
    05:00 +22°C° 1 mm 0 mps 733 mmHg 95%
    06:00 +22°C° 1 mm 0 mps 733 mmHg 95%
    07:00 +22°C° 1 mm 0 mps 734 mmHg 95%
    08:00 +23°C° 0.8 mm 0 mps 734 mmHg 92%
    09:00 +24°C° 0.8 mm 0 mps 734 mmHg 88%
    10:00 +24°C° 0.8 mm 0 mps 735 mmHg 85%
    11:00 +27°C° 0.5 mm 1 mps 734 mmHg 81%
    12:00 +28°C° 0.5 mm 1 mps 733 mmHg 76%
    13:00 +29°C° 0.5 mm 1 mps 733 mmHg 72%
    14:00 +29°C° 0.4 mm 1 mps 732 mmHg 74%
    15:00 +28°C° 0.4 mm 1 mps 731 mmHg 77%
    16:00 +28°C° 0.4 mm 1 mps 731 mmHg 80%
    17:00 +27°C° 0.7 mm 1 mps 731 mmHg 85%
    18:00 +26°C° 0.7 mm 1 mps 731 mmHg 91%
    19:00 +23°C° 0.7 mm 0 mps 732 mmHg 96%
    20:00 +23°C° 0.4 mm 0 mps 732 mmHg 96%
    21:00 +22°C° 0.4 mm 0 mps 733 mmHg 97%
    22:00 +22°C° 0.4 mm 0 mps 734 mmHg 97%
    23:00 +22°C° 0.3 mm 0 mps 733 mmHg 96%

    20 January, Saturday

    Time Temperature Precipitation Wind Pressure Humidity
    00:00 +22°C° 0.3 mm 0 mps 733 mmHg 96%
    01:00 +22°C° 0.3 mm 0 mps 733 mmHg 96%
    02:00 +22°C° 0.4 mm 0 mps 732 mmHg 95%
    03:00 +22°C° 0.4 mm 0 mps 732 mmHg 95%
    04:00 +22°C° 0.4 mm 0 mps 732 mmHg 94%
    05:00 +22°C° 0.5 mm 0 mps 732 mmHg 93%
    06:00 +22°C° 0.5 mm 0 mps 733 mmHg 93%
    07:00 +22°C° 0.5 mm 0 mps 734 mmHg 92%
    08:00 +23°C° 0.4 mm 0 mps 734 mmHg 86%
    09:00 +25°C° 0.4 mm 0 mps 734 mmHg 81%
    10:00 +26°C° 0.4 mm 0 mps 735 mmHg 75%
    11:00 +27°C° 0.3 mm 0 mps 734 mmHg 69%
    12:00 +29°C° 0.3 mm 0 mps 733 mmHg 63%
    13:00 +32°C° 0.3 mm 1 mps 733 mmHg 58%
    14:00 +31°C° 0.2 mm 1 mps 732 mmHg 61%
    15:00 +31°C° 0.2 mm 1 mps 731 mmHg 63%
    16:00 +30°C° 0.2 mm 1 mps 730 mmHg 66%
    17:00 +29°C° 0.3 mm 1 mps 731 mmHg 75%
    18:00 +27°C° 0.3 mm 1 mps 731 mmHg 84%
    19:00 +23°C° 0.3 mm 0 mps 731 mmHg 93%
    20:00 +23°C° 0.2 mm 0 mps 732 mmHg 94%
    21:00 +23°C° 0.2 mm 0 mps 733 mmHg 94%
    22:00 +22°C° 0.2 mm 0 mps 733 mmHg 95%
    23:00 +22°C° 0.2 mm 0 mps 733 mmHg 94%

    21 January, Sunday

    Time Temperature Precipitation Wind Pressure Humidity
    00:00 +22°C° 0.2 mm 0 mps 733 mmHg 94%
    01:00 +22°C° 0.2 mm 0 mps 732 mmHg 93%
    02:00 +22°C° 0.1 mm 0 mps 732 mmHg 92%
    03:00 +22°C° 0.1 mm 0 mps 732 mmHg 92%
    04:00 +22°C° 0.1 mm 0 mps 731 mmHg 91%
    05:00 +22°C° 0.1 mm 0 mps 732 mmHg 90%
    06:00 +22°C° 0.1 mm 0 mps 732 mmHg 88%
    07:00 +22°C° 0.1 mm 0 mps 733 mmHg 87%
    08:00 +24°C° 0.1 mm 0 mps 733 mmHg 79%
    09:00 +27°C° 0.1 mm 0 mps 733 mmHg 70%
    10:00 +29°C° 0.1 mm 0 mps 734 mmHg 61%
    11:00 +32°C° 0.1 mm 1 mps 733 mmHg 58%
    12:00 +33°C° 0.1 mm 1 mps 732 mmHg 54%
    13:00 +34°C° 0.1 mm 1 mps 731 mmHg 51%
    14:00 +33°C° 0.2 mm 1 mps 730 mmHg 54%
    15:00 +32°C° 0.2 mm 1 mps 729 mmHg 57%
    16:00 +32°C° 0.2 mm 1 mps 729 mmHg 61%
    17:00 +30°C° 0.2 mm 1 mps 729 mmHg 70%
    18:00 +28°C° 0.2 mm 1 mps 729 mmHg 80%
    19:00 +26°C° 0.2 mm 1 mps 730 mmHg 90%
    20:00 +24°C° 0.4 mm 0 mps 731 mmHg 91%
    21:00 +23°C° 0.4 mm 0 mps 731 mmHg 91%
    22:00 +23°C° 0.4 mm 0 mps 732 mmHg 92%
    23:00 +23°C° 0.5 mm 0 mps 732 mmHg 92%
    Show more